OAS055J MUHA-SKBO

Flight info

Callsign OAS055J
Flight time N/A
Altitude 23000
Route KAVUL5A LACET L465 ARNAL/N0488F370 UM782 LONET/N0485F390 UM782 AGUJA UQ117 TODUK DCT MTR DCT BUTAL/N0429F230 W65 LATIS/N0436F240 W65 MRN/N0428F230 W65 ISVAT ISVAT4W
Aircraft A359/H-SDE2E3GHIJ3J4J5LM1ORWXY/LB1D1

Departure

Time N/A
Airport José Martí International Airport (MUHA)

Arrival

Time 2026-04-30 18:40
Airport El Dorado International Airport (SKBO)
Time Latitude Longitude Altitude Speed Heading
2026-04-30 17:39 11.50861 -78.41392 38862 ft 507 kts 152°
2026-04-30 17:42 11.20696 -78.22719 38855 ft 509 kts 152°
2026-04-30 17:43 11.05536 -78.13352 38851 ft 510 kts 151°
2026-04-30 17:44 10.87320 -78.02112 38853 ft 511 kts 152°
2026-04-30 17:47 10.59929 -77.85241 38848 ft 512 kts 152°
2026-04-30 17:48 10.38589 -77.72122 38845 ft 512 kts 152°
2026-04-30 17:50 10.14168 -77.57134 38840 ft 515 kts 152°
2026-04-30 17:52 9.95730 -77.45837 38829 ft 517 kts 152°
2026-04-30 17:54 9.68938 -77.29448 38832 ft 520 kts 153°
2026-04-30 17:56 9.44155 -77.14314 38826 ft 519 kts 153°
2026-04-30 17:58 9.25638 -77.03025 38824 ft 519 kts 153°
2026-04-30 18:00 9.00933 -76.87984 38821 ft 517 kts 153°
2026-04-30 18:01 8.85509 -76.78606 38821 ft 518 kts 152°
2026-04-30 18:02 8.66871 -76.67286 38821 ft 523 kts 152°
2026-04-30 18:04 8.48179 -76.55946 38811 ft 523 kts 152°
2026-04-30 18:06 8.23086 -76.40744 38823 ft 527 kts 153°
2026-04-30 18:08 8.01093 -76.27438 38824 ft 527 kts 153°
2026-04-30 18:10 7.75952 -76.12249 38836 ft 527 kts 153°
2026-04-30 18:11 7.53901 -75.98943 38859 ft 528 kts 153°
2026-04-30 18:13 7.38140 -75.89444 38878 ft 528 kts 153°
2026-04-30 18:14 7.22367 -75.79949 38882 ft 529 kts 153°
2026-04-30 18:15 7.03458 -75.68566 38897 ft 527 kts 153°
2026-04-30 18:16 6.90875 -75.61005 38909 ft 528 kts 153°
2026-04-30 18:17 6.84576 -75.57217 38908 ft 528 kts 153°
2026-04-30 18:18 6.75123 -75.51538 38926 ft 527 kts 154°
2026-04-30 18:18 6.68790 -75.47735 38922 ft 527 kts 154°
2026-04-30 18:19 6.62530 -75.43977 38919 ft 527 kts 154°
2026-04-30 18:19 6.56237 -75.40201 38929 ft 526 kts 153°
2026-04-30 18:20 6.49949 -75.36428 38933 ft 526 kts 153°
2026-04-30 18:20 6.43662 -75.32658 38925 ft 526 kts 153°
2026-04-30 18:21 6.37370 -75.28886 38920 ft 526 kts 153°
2026-04-30 18:21 6.31095 -75.25125 39087 ft 526 kts 153°
2026-04-30 18:22 6.24805 -75.21355 39120 ft 525 kts 153°
2026-04-30 18:22 6.15356 -75.15696 39060 ft 526 kts 153°
2026-04-30 18:23 6.09084 -75.11939 39051 ft 526 kts 153°
2026-04-30 18:23 6.02791 -75.08173 38981 ft 526 kts 153°
2026-04-30 18:24 5.93307 -75.02512 38403 ft 538 kts 154°
2026-04-30 18:25 5.86911 -74.98699 38415 ft 532 kts 153°
2026-04-30 18:25 5.80600 -74.94904 38022 ft 525 kts 153°
2026-04-30 18:25 5.77452 -74.93018 37481 ft 525 kts 153°
2026-04-30 18:26 5.71177 -74.89264 36440 ft 526 kts 153°
2026-04-30 18:26 5.68030 -74.87388 35846 ft 528 kts 153°
2026-04-30 18:26 5.64834 -74.85501 34940 ft 533 kts 153°
2026-04-30 18:27 5.58405 -74.81777 33458 ft 533 kts 153°
2026-04-30 18:27 5.55182 -74.79947 32752 ft 532 kts 153°
2026-04-30 18:28 5.48682 -74.76371 31202 ft 533 kts 154°
2026-04-30 18:28 5.45390 -74.74632 30451 ft 534 kts 154°
2026-04-30 18:28 5.38754 -74.71271 29243 ft 529 kts 154°
2026-04-30 18:29 5.35457 -74.69632 28615 ft 527 kts 154°
2026-04-30 18:29 5.26399 -74.64756 26434 ft 474 kts 149°
2026-04-30 18:30 5.21801 -74.61887 24776 ft 460 kts 146°
2026-04-30 18:30 5.15789 -74.57669 22424 ft 441 kts 142°
2026-04-30 18:31 5.13375 -74.55825 21393 ft 432 kts 141°
2026-04-30 18:31 5.08752 -74.52251 19455 ft 414 kts 144°
2026-04-30 18:32 5.03896 -74.49301 17660 ft 397 kts 147°
2026-04-30 18:32 5.01547 -74.47911 16739 ft 388 kts 148°
2026-04-30 18:32 4.97020 -74.45265 15103 ft 368 kts 148°
2026-04-30 18:33 4.94882 -74.44011 14828 ft 345 kts 148°
2026-04-30 18:33 4.90887 -74.41467 13762 ft 343 kts 140°
2026-04-30 18:33 4.89172 -74.39759 12927 ft 351 kts 128°
2026-04-30 18:34 4.87910 -74.37711 12311 ft 338 kts 117°
2026-04-30 18:34 4.85615 -74.34006 12107 ft 283 kts 129°
2026-04-30 18:34 4.84433 -74.32591 12370 ft 245 kts 129°
2026-04-30 18:35 4.83431 -74.31313 12585 ft 227 kts 126°
2026-04-30 18:35 4.82502 -74.30053 12586 ft 222 kts 126°
2026-04-30 18:35 4.81582 -74.28824 12452 ft 220 kts 127°
2026-04-30 18:36 4.79727 -74.26363 11428 ft 221 kts 127°
2026-04-30 18:36 4.78817 -74.25154 11034 ft 208 kts 127°
2026-04-30 18:36 4.77217 -74.23028 10549 ft 175 kts 127°
2026-04-30 18:37 4.76509 -74.22086 10328 ft 165 kts 127°
2026-04-30 18:37 4.75829 -74.21185 10147 ft 161 kts 126°
2026-04-30 18:37 4.75154 -74.20285 9890 ft 162 kts 125°
2026-04-30 18:37 4.74482 -74.19391 9688 ft 160 kts 125°
2026-04-30 18:38 4.73809 -74.18496 9505 ft 161 kts 127°
2026-04-30 18:38 4.73135 -74.17601 9250 ft 162 kts 128°
2026-04-30 18:38 4.72454 -74.16696 8927 ft 161 kts 128°
2026-04-30 18:38 4.71997 -74.16095 8723 ft 160 kts 129°
2026-04-30 18:39 4.71344 -74.15221 8413 ft 155 kts 129°
2026-04-30 18:39 4.70745 -74.14407 8376 ft 129 kts 126°
2026-04-30 18:39 4.70254 -74.13779 8371 ft 100 kts 128°
2026-04-30 18:39 4.69889 -74.13297 8372 ft 76 kts 127°
2026-04-30 18:40 4.69609 -74.12926 8371 ft 58 kts 127°
2026-04-30 18:40 4.69397 -74.12644 8370 ft 39 kts 127°
2026-04-30 18:40 4.69295 -74.12527 8377 ft 14 kts 153°
2026-04-30 18:40 4.69238 -74.12561 8373 ft 10 kts 241°
2026-04-30 18:41 4.69214 -74.12622 8377 ft 9 kts 255°
2026-04-30 18:41 4.69203 -74.12684 8377 ft 10 kts 276°
2026-04-30 18:41 4.69237 -74.12757 8376 ft 12 kts 305°
2026-04-30 18:41 4.69293 -74.12832 8374 ft 18 kts 309°
2026-04-30 18:42 4.69386 -74.12954 8375 ft 23 kts 308°
2026-04-30 18:42 4.69572 -74.13201 8375 ft 21 kts 307°
2026-04-30 18:42 4.69661 -74.13318 8375 ft 21 kts 307°
2026-04-30 18:45 4.69874 -74.13896 8375 ft 4 kts 230°
2026-04-30 18:45 4.69857 -74.13910 8375 ft 2 kts 220°
2026-04-30 18:45 4.69856 -74.13911 8375 ft 1 kts 220°
2026-04-30 18:46 4.69844 -74.13921 8375 ft 0 kts 219°